When you browse on this site, cookies collect data to enhance your experience and personalize the content and advertising you see.
Visit our Privacy Policy to learn more. By continuing to use the site, you agree to this use of cookies and data.
  • Em Portugal
  • Lista de países
  • Para 7 dias
  • Temperatura da água
  • Mapas de satélite
  • Mapa do tempo
  • Widgets de tempo
  • user-avatar
    Iniciar Sessão

    Previsão horária em Temnoe

    Hoje, 20 Fevereiro, Quarta-feira

    Tempo Temperatura Precipitação Vento Pressão Humidade
    00:00 -18°C° 0 mm 1 m/s 739 mmHg 95%
    01:00 -18°C° 0 mm 1 m/s 739 mmHg 96%
    02:00 -19°C° 0 mm 1 m/s 739 mmHg 97%
    03:00 -20°C° 0 mm 1 m/s 740 mmHg 97%
    04:00 -21°C° 0 mm 0 m/s 740 mmHg 98%
    05:00 -21°C° 0 mm 0 m/s 740 mmHg 98%
    06:00 -21°C° 0 mm 1 m/s 740 mmHg 97%
    07:00 -21°C° 0 mm 1 m/s 740 mmHg 96%
    08:00 -20°C° 0 mm 1 m/s 741 mmHg 95%
    09:00 -18°C° 0 mm 1 m/s 741 mmHg 93%
    10:00 -18°C° 0 mm 2 m/s 741 mmHg 91%
    11:00 -17°C° 0 mm 2 m/s 741 mmHg 91%
    12:00 -16°C° 0 mm 2 m/s 741 mmHg 90%
    13:00 -15°C° 0 mm 3 m/s 741 mmHg 89%
    14:00 -15°C° 0 mm 3 m/s 741 mmHg 90%
    15:00 -15°C° 0 mm 3 m/s 740 mmHg 90%
    16:00 -16°C° 0 mm 4 m/s 740 mmHg 90%
    17:00 -16°C° 0 mm 4 m/s 740 mmHg 91%
    18:00 -17°C° 0 mm 4 m/s 740 mmHg 91%
    19:00 -17°C° 0 mm 4 m/s 739 mmHg 92%
    20:00 -18°C° 0 mm 5 m/s 739 mmHg 92%
    21:00 -17°C° 0 mm 5 m/s 739 mmHg 91%
    22:00 -15°C° 0 mm 5 m/s 738 mmHg 91%
    23:00 -15°C° 0.1 mm 6 m/s 738 mmHg 91%

    Amanhã, 21 Fevereiro, Quinta-feira

    Tempo Temperatura Precipitação Vento Pressão Humidade
    00:00 -15°C° 0.1 mm 6 m/s 738 mmHg 90%
    01:00 -14°C° 0.1 mm 6 m/s 737 mmHg 90%
    02:00 -14°C° 0.1 mm 6 m/s 737 mmHg 90%
    03:00 -14°C° 0.1 mm 6 m/s 737 mmHg 91%
    04:00 -12°C° 0.1 mm 6 m/s 737 mmHg 92%
    05:00 -12°C° 0.1 mm 6 m/s 736 mmHg 92%
    06:00 -11°C° 0.1 mm 6 m/s 736 mmHg 92%
    07:00 -11°C° 0.1 mm 6 m/s 736 mmHg 92%
    08:00 -10°C° 0.1 mm 6 m/s 736 mmHg 92%
    09:00 -9°C° 0.1 mm 6 m/s 736 mmHg 92%
    10:00 -9°C° 0.1 mm 6 m/s 736 mmHg 92%
    11:00 -9°C° 0.2 mm 6 m/s 737 mmHg 92%
    12:00 -8°C° 0.2 mm 6 m/s 737 mmHg 92%
    13:00 -8°C° 0.2 mm 6 m/s 737 mmHg 91%
    14:00 -8°C° 0.2 mm 6 m/s 737 mmHg 91%
    15:00 -6°C° 0.2 mm 6 m/s 737 mmHg 91%
    16:00 -6°C° 0.2 mm 6 m/s 738 mmHg 91%
    17:00 -6°C° 0.2 mm 6 m/s 738 mmHg 91%
    18:00 -8°C° 0.2 mm 6 m/s 738 mmHg 92%
    19:00 -8°C° 0.2 mm 6 m/s 738 mmHg 92%
    20:00 -8°C° 0.1 mm 6 m/s 738 mmHg 92%
    21:00 -8°C° 0.1 mm 6 m/s 739 mmHg 91%
    22:00 -8°C° 0.1 mm 6 m/s 739 mmHg 91%
    23:00 -7°C° 0.1 mm 5 m/s 739 mmHg 91%

    Depois de amanhã, 22 Fevereiro, Sexta-feira

    Tempo Temperatura Precipitação Vento Pressão Humidade
    00:00 -7°C° 0.1 mm 5 m/s 739 mmHg 92%
    01:00 -6°C° 0.1 mm 5 m/s 739 mmHg 92%
    02:00 -6°C° 0.2 mm 5 m/s 739 mmHg 92%
    03:00 -6°C° 0.2 mm 5 m/s 739 mmHg 91%
    04:00 -5°C° 0.2 mm 5 m/s 739 mmHg 91%
    05:00 -5°C° 0.1 mm 5 m/s 739 mmHg 91%
    06:00 -6°C° 0.1 mm 5 m/s 739 mmHg 91%
    07:00 -6°C° 0.1 mm 5 m/s 739 mmHg 91%
    08:00 -6°C° 0.1 mm 5 m/s 739 mmHg 91%
    09:00 -6°C° 0.1 mm 5 m/s 739 mmHg 91%
    10:00 -6°C° 0.1 mm 5 m/s 739 mmHg 91%
    11:00 -5°C° 0.2 mm 5 m/s 739 mmHg 91%
    12:00 -4°C° 0.2 mm 5 m/s 739 mmHg 90%
    13:00 -4°C° 0.2 mm 5 m/s 739 mmHg 89%
    14:00 -4°C° 0.2 mm 5 m/s 739 mmHg 89%
    15:00 -4°C° 0.2 mm 5 m/s 739 mmHg 88%
    16:00 -4°C° 0.2 mm 5 m/s 739 mmHg 88%
    17:00 -4°C° 0.2 mm 5 m/s 739 mmHg 89%
    18:00 -3°C° 0.2 mm 4 m/s 739 mmHg 90%
    19:00 -3°C° 0.2 mm 4 m/s 739 mmHg 91%
    20:00 -3°C° 0.3 mm 4 m/s 739 mmHg 90%
    21:00 -5°C° 0.3 mm 5 m/s 739 mmHg 90%
    22:00 -5°C° 0.3 mm 5 m/s 739 mmHg 90%
    23:00 -5°C° 0.2 mm 5 m/s 740 mmHg 89%

    23 Fevereiro, Sábado

    Tempo Temperatura Precipitação Vento Pressão Humidade
    00:00 -6°C° 0.2 mm 5 m/s 740 mmHg 88%
    01:00 -6°C° 0.2 mm 6 m/s 741 mmHg 88%
    02:00 -8°C° 0 mm 5 m/s 741 mmHg 89%
    03:00 -11°C° 0 mm 4 m/s 742 mmHg 91%
    04:00 -14°C° 0 mm 4 m/s 742 mmHg 92%
    05:00 -12°C° 0 mm 4 m/s 743 mmHg 92%
    06:00 -12°C° 0 mm 4 m/s 744 mmHg 92%
    07:00 -12°C° 0 mm 4 m/s 744 mmHg 92%
    08:00 -11°C° 0.1 mm 4 m/s 745 mmHg 92%
    09:00 -11°C° 0.1 mm 5 m/s 745 mmHg 91%
    10:00 -11°C° 0.1 mm 5 m/s 746 mmHg 91%
    11:00 -10°C° 0.1 mm 5 m/s 746 mmHg 89%
    12:00 -10°C° 0.1 mm 5 m/s 746 mmHg 87%
    13:00 -8°C° 0.1 mm 5 m/s 747 mmHg 86%
    14:00 -10°C° 0.1 mm 5 m/s 747 mmHg 86%
    15:00 -10°C° 0.1 mm 5 m/s 747 mmHg 87%
    16:00 -10°C° 0.1 mm 5 m/s 747 mmHg 87%
    17:00 -11°C° 0.1 mm 5 m/s 747 mmHg 89%
    18:00 -11°C° 0.1 mm 5 m/s 748 mmHg 90%
    19:00 -10°C° 0.1 mm 4 m/s 748 mmHg 91%
    20:00 -11°C° 0.1 mm 4 m/s 748 mmHg 92%
    21:00 -11°C° 0.1 mm 4 m/s 748 mmHg 93%
    22:00 -12°C° 0.1 mm 4 m/s 748 mmHg 93%
    23:00 -12°C° 0.2 mm 4 m/s 748 mmHg 94%

    24 Fevereiro, Domingo

    Tempo Temperatura Precipitação Vento Pressão Humidade
    00:00 -12°C° 0.2 mm 4 m/s 748 mmHg 94%
    01:00 -14°C° 0.2 mm 4 m/s 749 mmHg 94%
    02:00 -12°C° 0.1 mm 4 m/s 749 mmHg 94%
    03:00 -12°C° 0.1 mm 4 m/s 749 mmHg 94%
    04:00 -12°C° 0.1 mm 4 m/s 749 mmHg 94%
    05:00 -12°C° 0.1 mm 4 m/s 749 mmHg 94%
    06:00 -11°C° 0.1 mm 4 m/s 749 mmHg 95%
    07:00 -11°C° 0.1 mm 4 m/s 749 mmHg 95%
    08:00 -11°C° 0.1 mm 4 m/s 750 mmHg 95%
    09:00 -10°C° 0.1 mm 4 m/s 750 mmHg 94%
    10:00 -10°C° 0.1 mm 4 m/s 750 mmHg 94%
    11:00 -10°C° 0.1 mm 4 m/s 750 mmHg 93%
    12:00 -10°C° 0.1 mm 4 m/s 750 mmHg 92%
    13:00 -10°C° 0.1 mm 4 m/s 750 mmHg 91%
    14:00 -10°C° 0.1 mm 4 m/s 750 mmHg 90%
    15:00 -11°C° 0.1 mm 5 m/s 750 mmHg 90%
    16:00 -11°C° 0.1 mm 5 m/s 750 mmHg 89%
    17:00 -10°C° 0.1 mm 4 m/s 750 mmHg 90%
    18:00 -10°C° 0.1 mm 4 m/s 750 mmHg 91%
    19:00 -11°C° 0.1 mm 4 m/s 751 mmHg 92%
    20:00 -11°C° 0.1 mm 4 m/s 750 mmHg 92%
    21:00 -11°C° 0.1 mm 4 m/s 750 mmHg 93%
    22:00 -11°C° 0.1 mm 4 m/s 750 mmHg 93%
    23:00 -12°C° 0.1 mm 4 m/s 750 mmHg 93%

    25 Fevereiro, Segunda-feira

    Tempo Temperatura Precipitação Vento Pressão Humidade
    00:00 -12°C° 0.1 mm 4 m/s 749 mmHg 93%
    01:00 -12°C° 0.1 mm 4 m/s 749 mmHg 94%
    02:00 -12°C° 0 mm 4 m/s 749 mmHg 94%
    03:00 -14°C° 0 mm 4 m/s 748 mmHg 94%
    04:00 -14°C° 0 mm 4 m/s 748 mmHg 94%
    05:00 -15°C° 0 mm 4 m/s 748 mmHg 94%
    06:00 -15°C° 0 mm 4 m/s 747 mmHg 95%
    07:00 -16°C° 0 mm 4 m/s 747 mmHg 95%
    08:00 -16°C° 0.1 mm 4 m/s 747 mmHg 95%
    09:00 -15°C° 0.1 mm 4 m/s 747 mmHg 95%
    10:00 -15°C° 0.1 mm 4 m/s 747 mmHg 95%
    11:00 -14°C° 0 mm 4 m/s 746 mmHg 94%
    12:00 -14°C° 0 mm 4 m/s 746 mmHg 94%
    13:00 -12°C° 0 mm 4 m/s 746 mmHg 93%
    14:00 -12°C° 0 mm 4 m/s 745 mmHg 93%
    15:00 -12°C° 0 mm 4 m/s 745 mmHg 93%
    16:00 -11°C° 0 mm 4 m/s 744 mmHg 93%
    17:00 -12°C° 0 mm 4 m/s 744 mmHg 94%
    18:00 -12°C° 0 mm 4 m/s 744 mmHg 94%
    19:00 -12°C° 0 mm 4 m/s 744 mmHg 94%
    20:00 -12°C° 0 mm 4 m/s 743 mmHg 94%
    21:00 -12°C° 0 mm 4 m/s 743 mmHg 94%
    22:00 -14°C° 0 mm 4 m/s 743 mmHg 95%
    23:00 -13°C° 0.1 mm 3 m/s 743 mmHg 95%
    Mostrar mais